Regional Weather Roundup
Issued by NWS

Home | Current Version | Previous Version | Graphics & Text | Print | Product List | Glossary On
Versions: 1 2 3 4 5 6 7 8 9 10 11 12 13 14 15 16 17 18 19 20 21 22 23 24 25 26 27 28 29 30 31 32 33 34 35 36 37 38 39 40 41 42 43 44 45 46 47 48 49 50
000
ASUS45 KTFX 230610
RWRMT
MONTANA REGIONAL WEATHER ROUNDUP
NATIONAL WEATHER SERVICE GREAT FALLS MT
1200 AM MDT WED MAY 23 2018

NOTE: "FAIR" INDICATES FEW OR NO CLOUDS BELOW 12000 FEET WITH NO
SIGNIFICANT WEATHER AND/OR OBSTRUCTIONS TO VISIBILITY.

MTZ001>007-043-230700-
WEST OF THE DIVIDE

CITY           SKY/WX    TMP DP  RH WIND       PRES   REMARKS
KALISPELL      FAIR      52  46  80 CALM      29.91F
MISSOULA       FAIR      61  50  67 SE6       29.91F
BUTTE          FAIR      47  44  90 S5        30.03F
MULLAN PASS    FAIR      54  41  61 SE8       30.02F
ANACONDA         N/A     50  45  81 SW6       30.01F
DEER LODGE       N/A     50  48  93 CALM      30.02F
HAMILTON         N/A     55  50  82 MISG      29.94F
RONAN            N/A     52  45  76 NE7       29.91F
$$

MTZ008-052>055-230700-
SOUTHWEST MONTANA

CITY           SKY/WX    TMP DP  RH WIND       PRES   REMARKS
BOZEMAN        MOCLDY    55  51  86 SW3       29.99F
DILLON         FAIR      47  44  90 SE5       29.99S
ENNIS          MOCLDY    43  43 100 E5        30.04F
W YELLOWSTONE  MOCLDY    46  43  87 CALM      30.03F
$$

MTZ009-010-012-014-046-048-049-054-230700-
EAST SLOPES AND CENTRAL MONTANA

CITY           SKY/WX    TMP DP  RH WIND       PRES   REMARKS
CUT BANK       FAIR      54  44  69 N3        29.99S
GREAT FALLS    CLOUDY    61  49  64 E5        29.99F
MALMSTROM AFB  CLOUDY    57  49  76 CALM      29.98F
HELENA         FAIR      56  49  77 W6        29.96F
AUGUSTA        FAIR      52  45  78 N7        29.99F
BOWMANS CRNR   FAIR      55  45  69 NE6       29.98F
CHOTEAU          N/A     54  48  82 NW7       30.00F
POWER          FAIR      55  47  74 N5        29.98F
RAYNESFORD     MOCLDY    51  46  82 CALM      30.00F
ULM            FAIR      50  46  85 SE5       29.97F
WHITE SULPHUR    N/A     48  45  87 CALM      30.01F
$$

MTZ011-013-016-021-045-047-050-051-230700-
NORTH CENTRAL MONTANA

CITY           SKY/WX    TMP DP  RH WIND       PRES   REMARKS
HAVRE          FAIR      56  49  77 S8        29.93F
LEWISTOWN      MOCLDY    53  51  93 S8        29.99F
N BAR RANCH    MOCLDY    52  48  87 NW3       30.02F
CHINOOK          N/A     57  52  82 S5        29.93S
DENTON         MOCLDY    58  51  78 W3        29.94F
GEYSER         MOCLDY    53  46  77 SW8       29.99F
JUDITH GAP     MOCLDY    53  50  89 CALM      30.01F
ROY            CLOUDY    57  49  72 W7        29.96F
STANFORD       MOCLDY    54  48  82 W3        30.00F
WINIFRED       MOCLDY    59  52  77 W6        29.97F
$$

MTZ017>020-022>027-061-062-230700-
NORTHEAST MONTANA

CITY           SKY/WX    TMP DP  RH WIND       PRES   REMARKS
GLASGOW        FAIR      59  47  64 SE5       29.93R
GLENDIVE       FAIR      60  54  80 E9        29.92F
JORDAN           N/A     54  50  86 CALM      29.93S
MALTA          CLEAR     54  50  87 CALM      29.89F
SIDNEY         FAIR      63  53  70 E5        29.92F
WOLF POINT     FAIR      58  51  78 NE6       29.93F
PLENTYWOOD       N/A     63  48  59 CALM      29.95F
POPLAR           N/A     63  50  63 E6        29.93F
$$

MTZ028>42-056>058-230700-
SOUTHCENTRAL AND SOUTHEAST MONTANA

CITY           SKY/WX    TMP DP  RH WIND       PRES   REMARKS
BAKER          FAIR      58  56  93 SE8       29.93F
BILLINGS       TSTM      57  55  93 SW17      29.97R
LIVINGSTON     MOCLDY    53  50  89 E10       30.00F
MILES CITY     FAIR      61  57  87 N9        29.90F
BIG TIMBER     MOCLDY    52  50  93 CALM      30.03F
FORSYTH          N/A    N/A N/A N/A NE3       29.89F
HARLOWTON      MOCLDY    52  50  92 W10       30.00F
LAUREL           N/A     57  55  94 SW9       29.98F FOG
$$

REGIONAL REPORTS...DAKOTAS

CITY           SKY/WX    TMP DP  RH WIND       PRES   REMARKS
WILLISTON      LGT RAIN  65  55  70 E3        29.95R
MINOT          FAIR      62  52  69 CALM      29.94S
DICKINSON      FAIR      59  55  87 E6        29.95S
BEACH          FAIR      55  55 100 E9        29.97F
CROSBY         FAIR      54  50  87 N7        29.95F
TIOGA          CLOUDY    61  55  82 NE8       29.97F
WATFORD CITY   FAIR      63  54  72 E10       29.93F
BISMARCK       CLOUDY    64  58  80 E16       29.96F
GRAND FORKS    FAIR      64  56  75 SE8       29.98S
FARGO          FAIR      68  56  65 SE12      29.99S
BUFFALO SD       N/A     65  58  78 E10       29.88
RAPID CITY     RAIN      58  54  86 SW7       29.96R
$$

REGIONAL REPORTS...WYOMING/IDAHO/WASHINGTON

CITY           SKY/WX    TMP DP  RH WIND       PRES   REMARKS
GILLETTE       CLOUDY    57  51  80 S13G23    29.93F
SHERIDAN       TSTM      55  53  93 CALM      29.96F
BUFFALO WY     LGT RAIN  55  52  89 SW10      30.01F
CODY           RAIN      51  48  89 VRB5      30.03F
YELLOWSTONE LA   N/A     41  36  82 CALM      30.11S
IDAHO FALLS    CLOUDY    57  48  72 S7        29.95F
SALMON         MOCLDY    57  48  72 NW5       29.93F
BOISE          FAIR      66  47  50 SE5       29.82F
SPOKANE        CLOUDY    69  48  47 S8        29.84R
$$

REGIONAL REPORTS...ALBERTA

CITY           SKY/WX    TMP DP  RH WIND       PRES   REMARKS
CALGARY        PTCLDY    61  41  48 S8        29.96F
CARDSTON         N/A     54  45  71 S3          N/A
EDMONTON       CLEAR     59  41  51 E3        29.90S
FORT MCMURRAY  CLEAR     64  43  45 S9        29.82S
HIGH LEVEL     CLEAR     61  46  59 CALM      29.72S
LETHBRIDGE     PTCLDY    59  43  55 SW7       29.94F
LLOYDMINSTER   CLEAR     63  43  48 SE2       29.92F
MEDICINE HAT   CLEAR     63  45  51 E3        29.92S
MILK RIVER       N/A     52  46  82 W6          N/A
ONEFOUR          N/A     55  43  62 NE7         N/A
PEACE RIVER    PTCLDY    55  43  62 N3        29.82S
PINCHER CREEK    N/A     50  43  76 W8        29.99S
WATERTON GATE    N/A     50  39  66 SW6         N/A
$$

REGIONAL REPORTS...SASKATCHEWAN

CITY           SKY/WX    TMP DP  RH WIND       PRES   REMARKS
CORONACH         N/A     54  48  82 SE6         N/A
CYPRESS HILLS    N/A     59  34  38 SE2         N/A
ESTEVAN        PTCLDY    54  50  87 NE9       29.95S
PRINCE ALBERT  PTCLDY    59  50  72 NE3       29.96F
REGINA         PTCLDY    59  50  72 E7        29.96R
ROCKGLEN         N/A     57  46  67 S8          N/A
SASKATOON      PTCLDY    63  46  55 E6        29.96R
SWIFT CURRENT  CLEAR     57  43  58 SE8       29.94F
VAL MARIE        N/A     48  39  71 NE1         N/A
$$



USA.gov is the U.S. government's official web portal to all federal, state and local government web resources and services.